When you browse on this site, cookies collect data to enhance your experience and personalize the content and advertising you see.
Visit our Privacy Policy to learn more. By continuing to use the site, you agree to this use of cookies and data.
  • Em Portugal
  • Lista de países
  • Para 7 dias
  • Temperatura da água
  • Mapas de satélite
  • Mapa do tempo
  • Widgets de tempo
  • user-avatar
    Iniciar Sessão

    Previsão horária em Dvor-Susha

    Hoje, 20 Fevereiro, Quarta-feira

    Tempo Temperatura Precipitação Vento Pressão Humidade
    00:00 0°C° 0 mm 5 m/s 741 mmHg 90%
    01:00 0°C° 0 mm 4 m/s 741 mmHg 90%
    02:00 0°C° 0 mm 5 m/s 741 mmHg 92%
    03:00 0°C° 0 mm 4 m/s 740 mmHg 92%
    04:00 -1°C° 0 mm 4 m/s 740 mmHg 92%
    05:00 -1°C° 0 mm 4 m/s 740 mmHg 92%
    06:00 -1°C° 0 mm 4 m/s 740 mmHg 92%
    07:00 0°C° 0 mm 5 m/s 740 mmHg 93%
    08:00 0°C° 0 mm 5 m/s 740 mmHg 93%
    09:00 -1°C° 0.1 mm 6 m/s 740 mmHg 93%
    10:00 +1°C° 0.1 mm 6 m/s 739 mmHg 93%
    11:00 +1°C° 0.1 mm 6 m/s 739 mmHg 92%
    12:00 +1°C° 0 mm 6 m/s 739 mmHg 91%
    13:00 +1°C° 0 mm 6 m/s 739 mmHg 89%
    14:00 +1°C° 0 mm 6 m/s 739 mmHg 88%
    15:00 +1°C° 0.1 mm 6 m/s 739 mmHg 88%
    16:00 +1°C° 0.1 mm 6 m/s 739 mmHg 87%
    17:00 +1°C° 0.1 mm 6 m/s 739 mmHg 87%
    18:00 -2°C° 0.2 mm 7 m/s 739 mmHg 82%
    19:00 -3°C° 0.2 mm 7 m/s 739 mmHg 77%
    20:00 -5°C° 0.2 mm 8 m/s 740 mmHg 72%
    21:00 -6°C° 0 mm 8 m/s 740 mmHg 72%
    22:00 -6°C° 0 mm 8 m/s 741 mmHg 72%
    23:00 -7°C° 0 mm 8 m/s 742 mmHg 72%

    Amanhã, 21 Fevereiro, Quinta-feira

    Tempo Temperatura Precipitação Vento Pressão Humidade
    00:00 -7°C° 0 mm 8 m/s 742 mmHg 71%
    01:00 -8°C° 0 mm 7 m/s 743 mmHg 71%
    02:00 -8°C° 0 mm 7 m/s 743 mmHg 71%
    03:00 -8°C° 0 mm 7 m/s 744 mmHg 71%
    04:00 -8°C° 0 mm 7 m/s 744 mmHg 71%
    05:00 -10°C° 0 mm 8 m/s 744 mmHg 71%
    06:00 -9°C° 0 mm 7 m/s 745 mmHg 70%
    07:00 -9°C° 0 mm 7 m/s 745 mmHg 69%
    08:00 -9°C° 0 mm 7 m/s 746 mmHg 68%
    09:00 -9°C° 0 mm 7 m/s 746 mmHg 67%
    10:00 -8°C° 0 mm 7 m/s 747 mmHg 67%
    11:00 -8°C° 0 mm 7 m/s 748 mmHg 66%
    12:00 -8°C° 0 mm 7 m/s 748 mmHg 65%
    13:00 -7°C° 0 mm 7 m/s 749 mmHg 64%
    14:00 -6°C° 0 mm 6 m/s 749 mmHg 63%
    15:00 -6°C° 0 mm 6 m/s 749 mmHg 65%
    16:00 -7°C° 0 mm 5 m/s 750 mmHg 67%
    17:00 -7°C° 0 mm 5 m/s 750 mmHg 69%
    18:00 -8°C° 0 mm 5 m/s 750 mmHg 70%
    19:00 -9°C° 0 mm 4 m/s 751 mmHg 71%
    20:00 -9°C° 0 mm 4 m/s 751 mmHg 73%
    21:00 -9°C° 0 mm 4 m/s 752 mmHg 73%
    22:00 -9°C° 0 mm 4 m/s 752 mmHg 74%
    23:00 -10°C° 0 mm 4 m/s 752 mmHg 74%

    Depois de amanhã, 22 Fevereiro, Sexta-feira

    Tempo Temperatura Precipitação Vento Pressão Humidade
    00:00 -10°C° 0 mm 4 m/s 753 mmHg 74%
    01:00 -11°C° 0 mm 4 m/s 753 mmHg 74%
    02:00 -11°C° 0 mm 4 m/s 754 mmHg 74%
    03:00 -11°C° 0 mm 4 m/s 754 mmHg 74%
    04:00 -12°C° 0 mm 4 m/s 755 mmHg 74%
    05:00 -13°C° 0 mm 5 m/s 755 mmHg 74%
    06:00 -13°C° 0 mm 5 m/s 756 mmHg 74%
    07:00 -13°C° 0 mm 5 m/s 757 mmHg 74%
    08:00 -13°C° 0 mm 5 m/s 757 mmHg 74%
    09:00 -12°C° 0 mm 6 m/s 758 mmHg 71%
    10:00 -12°C° 0 mm 6 m/s 758 mmHg 67%
    11:00 -11°C° 0 mm 6 m/s 759 mmHg 64%
    12:00 -11°C° 0 mm 7 m/s 759 mmHg 61%
    13:00 -11°C° 0 mm 7 m/s 759 mmHg 58%
    14:00 -9°C° 0 mm 7 m/s 759 mmHg 55%
    15:00 -11°C° 0 mm 7 m/s 760 mmHg 58%
    16:00 -10°C° 0 mm 6 m/s 760 mmHg 60%
    17:00 -10°C° 0 mm 6 m/s 760 mmHg 63%
    18:00 -11°C° 0 mm 6 m/s 761 mmHg 65%
    19:00 -11°C° 0 mm 6 m/s 761 mmHg 66%
    20:00 -11°C° 0 mm 5 m/s 761 mmHg 68%
    21:00 -11°C° 0 mm 5 m/s 762 mmHg 69%
    22:00 -11°C° 0 mm 5 m/s 762 mmHg 70%
    23:00 -12°C° 0 mm 5 m/s 762 mmHg 71%

    23 Fevereiro, Sábado

    Tempo Temperatura Precipitação Vento Pressão Humidade
    00:00 -12°C° 0 mm 5 m/s 763 mmHg 73%
    01:00 -12°C° 0 mm 5 m/s 763 mmHg 74%
    02:00 -12°C° 0 mm 5 m/s 764 mmHg 75%
    03:00 -12°C° 0 mm 4 m/s 764 mmHg 76%
    04:00 -12°C° 0 mm 4 m/s 764 mmHg 78%
    05:00 -12°C° 0 mm 4 m/s 764 mmHg 79%
    06:00 -12°C° 0 mm 4 m/s 764 mmHg 80%
    07:00 -14°C° 0 mm 4 m/s 765 mmHg 81%
    08:00 -14°C° 0 mm 4 m/s 765 mmHg 82%
    09:00 -12°C° 0 mm 4 m/s 765 mmHg 78%
    10:00 -11°C° 0 mm 4 m/s 765 mmHg 74%
    11:00 -10°C° 0 mm 4 m/s 765 mmHg 69%
    12:00 -10°C° 0 mm 4 m/s 765 mmHg 66%
    13:00 -8°C° 0 mm 3 m/s 765 mmHg 62%
    14:00 -7°C° 0 mm 3 m/s 765 mmHg 59%
    15:00 -7°C° 0 mm 3 m/s 765 mmHg 60%
    16:00 -7°C° 0 mm 3 m/s 764 mmHg 62%
    17:00 -7°C° 0 mm 3 m/s 764 mmHg 64%
    18:00 -7°C° 0 mm 3 m/s 764 mmHg 65%
    19:00 -6°C° 0 mm 2 m/s 764 mmHg 67%
    20:00 -6°C° 0 mm 2 m/s 764 mmHg 68%
    21:00 -6°C° 0.1 mm 2 m/s 763 mmHg 74%
    22:00 -6°C° 0.1 mm 2 m/s 763 mmHg 79%
    23:00 -7°C° 0.1 mm 3 m/s 762 mmHg 84%

    24 Fevereiro, Domingo

    Tempo Temperatura Precipitação Vento Pressão Humidade
    00:00 -7°C° 0.1 mm 3 m/s 762 mmHg 85%
    01:00 -7°C° 0.1 mm 3 m/s 762 mmHg 86%
    02:00 -7°C° 0.1 mm 3 m/s 762 mmHg 87%
    03:00 -7°C° 0.1 mm 3 m/s 761 mmHg 88%
    04:00 -6°C° 0.1 mm 3 m/s 761 mmHg 90%
    05:00 -6°C° 0.1 mm 3 m/s 760 mmHg 91%
    06:00 -5°C° 0.1 mm 2 m/s 760 mmHg 92%
    07:00 -5°C° 0.1 mm 2 m/s 760 mmHg 94%
    08:00 -2°C° 0.1 mm 1 m/s 760 mmHg 95%
    09:00 -1°C° 0 mm 1 m/s 760 mmHg 93%
    10:00 -1°C° 0 mm 1 m/s 761 mmHg 92%
    11:00 0°C° 0 mm 1 m/s 761 mmHg 91%
    12:00 +1°C° 0 mm 1 m/s 761 mmHg 91%
    13:00 +1°C° 0 mm 1 m/s 761 mmHg 91%
    14:00 +1°C° 0 mm 1 m/s 761 mmHg 92%
    15:00 +1°C° 0 mm 1 m/s 761 mmHg 93%
    16:00 +1°C° 0 mm 1 m/s 761 mmHg 94%
    17:00 +1°C° 0 mm 1 m/s 761 mmHg 94%
    18:00 +1°C° 0 mm 1 m/s 761 mmHg 95%
    19:00 +1°C° 0 mm 1 m/s 761 mmHg 95%
    20:00 0°C° 0 mm 1 m/s 761 mmHg 95%
    21:00 0°C° 0 mm 1 m/s 761 mmHg 95%
    22:00 0°C° 0 mm 1 m/s 761 mmHg 95%
    23:00 0°C° 0 mm 1 m/s 761 mmHg 95%

    25 Fevereiro, Segunda-feira

    Tempo Temperatura Precipitação Vento Pressão Humidade
    00:00 0°C° 0 mm 1 m/s 760 mmHg 95%
    01:00 0°C° 0 mm 1 m/s 760 mmHg 95%
    02:00 -2°C° 0 mm 2 m/s 760 mmHg 95%
    03:00 -2°C° 0 mm 2 m/s 759 mmHg 94%
    04:00 -2°C° 0 mm 2 m/s 759 mmHg 94%
    05:00 -2°C° 0 mm 2 m/s 758 mmHg 94%
    06:00 -2°C° 0 mm 2 m/s 758 mmHg 95%
    07:00 -1°C° 0 mm 2 m/s 758 mmHg 95%
    08:00 -1°C° 0 mm 2 m/s 758 mmHg 96%
    09:00 -1°C° 0 mm 3 m/s 757 mmHg 95%
    10:00 0°C° 0 mm 3 m/s 757 mmHg 95%
    11:00 0°C° 0 mm 3 m/s 757 mmHg 94%
    12:00 0°C° 0 mm 3 m/s 757 mmHg 91%
    13:00 0°C° 0 mm 4 m/s 757 mmHg 87%
    14:00 0°C° 0 mm 4 m/s 756 mmHg 83%
    15:00 0°C° 0 mm 4 m/s 756 mmHg 84%
    16:00 0°C° 0 mm 5 m/s 756 mmHg 84%
    17:00 -1°C° 0 mm 5 m/s 756 mmHg 85%
    18:00 -1°C° 0 mm 4 m/s 756 mmHg 85%
    19:00 -1°C° 0 mm 4 m/s 756 mmHg 86%
    20:00 -1°C° 0 mm 3 m/s 756 mmHg 86%
    21:00 -1°C° 0 mm 3 m/s 756 mmHg 87%
    22:00 -3°C° 0 mm 4 m/s 756 mmHg 88%
    23:00 -3°C° 0 mm 4 m/s 756 mmHg 88%
    Mostrar mais